contact:dominique.lefevre@mio.osupytheas.fr, maurice.libes@osupytheas.fr, didier.mallarino@osupytheas.fr
Project:EMSO http://www.emso-fr.org/EMSO-France
Depth: 2436.0 m
Title:EMSO Ligure Ouest : Data MII capteur AQUADOPP
Date,Latitude,Longitude,X_East,Y_North,Z_Up,Amplitude_X,Amplitude_Y,Amplitude_Z,Batterie,SoundSpeed,Heading,Pitch,Roll,Pressure,TIS,Speed,Direction
, degrees North, degrees East, m.s-1, m.s-1,m.s-1, 1, 1, 1, Volt, m.s-1, degree, degree, degree, dbar, degree_C, m.s-1, degree
2021-02-15T00:04:03,42.805,6.029,-0.068,-0.008,-0.025,106.0,105.0,104.0,13.4,1505.2,326.3,-0.8,1.8,2470.444,13.28,0.068,263.3
2021-02-15T00:07:03,42.805,6.029,-0.043,0.017,-0.004,106.0,105.0,103.0,13.4,1505.2,325.0,-0.8,1.8,2470.453,13.28,0.046,291.6
2021-02-15T00:10:03,42.805,6.029,-0.057,0.01,-0.027,105.0,106.0,104.0,13.3,1505.2,326.4,-0.8,1.8,2470.474,13.28,0.057,279.9
2021-02-15T00:13:03,42.805,6.029,-0.053,-0.008,-0.015,106.0,105.0,102.0,13.3,1505.2,324.7,-0.8,1.9,2470.445,13.28,0.053,261.4
2021-02-15T00:16:03,42.805,6.029,-0.069,0.025,-0.017,107.0,106.0,103.0,13.4,1505.2,324.1,-0.8,1.8,2470.406,13.28,0.073,289.9
2021-02-15T00:19:03,42.805,6.029,-0.055,0.007,-0.011,106.0,105.0,103.0,13.3,1505.2,324.8,-0.8,1.8,2470.425,13.28,0.055,277.3
2021-02-15T00:22:03,42.805,6.029,-0.052,0.014,0.012,106.0,105.0,103.0,13.3,1505.2,327.3,-0.8,1.8,2470.367,13.28,0.053,285.1
2021-02-15T00:25:03,42.805,6.029,-0.031,-0.002,0.001,106.0,105.0,102.0,13.4,1505.2,326.4,-0.7,1.9,2470.431,13.28,0.031,266.3
2021-02-15T00:28:03,42.805,6.029,-0.068,0.022,-0.013,106.0,105.0,103.0,13.4,1505.2,322.8,-0.8,1.8,2470.37,13.28,0.071,287.9
2021-02-15T00:31:03,42.805,6.029,-0.045,0.003,0.009,106.0,105.0,104.0,13.4,1505.2,326.3,-0.7,1.8,2470.398,13.28,0.045,273.8
2021-02-15T00:34:03,42.805,6.029,-0.064,0.002,-0.029,106.0,105.0,104.0,13.4,1505.2,327.1,-0.8,1.9,2470.406,13.28,0.064,271.8
2021-02-15T00:37:03,42.805,6.029,-0.052,-0.019,-0.026,105.0,104.0,103.0,13.4,1505.2,327.0,-0.8,1.8,2470.405,13.28,0.055,249.9
2021-02-15T00:40:03,42.805,6.029,-0.059,0.007,-0.006,106.0,104.0,104.0,13.4,1505.2,324.1,-0.7,1.8,2470.377,13.28,0.059,276.8
2021-02-15T00:43:03,42.805,6.029,-0.049,-0.005,-0.005,106.0,105.0,104.0,13.4,1505.2,322.6,-0.7,1.8,2470.378,13.28,0.049,264.2
2021-02-15T00:46:03,42.805,6.029,-0.064,-0.006,-0.007,105.0,106.0,103.0,13.4,1505.2,322.5,-0.8,1.8,2470.431,13.28,0.064,264.6
2021-02-15T00:49:03,42.805,6.029,-0.089,-0.002,-0.013,106.0,105.0,103.0,13.4,1505.2,323.2,-0.7,1.8,2470.408,13.28,0.089,268.7
2021-02-15T00:52:03,42.805,6.029,-0.063,0.014,-0.008,106.0,105.0,104.0,13.3,1505.2,326.4,-0.8,1.8,2470.373,13.28,0.064,282.5
2021-02-15T00:55:03,42.805,6.029,-0.064,0.002,0.019,106.0,104.0,104.0,13.4,1505.2,324.7,-0.7,1.8,2470.407,13.28,0.064,271.8
2021-02-15T00:58:03,42.805,6.029,-0.067,0.007,-0.005,105.0,106.0,103.0,13.4,1505.2,327.2,-0.8,1.8,2470.404,13.28,0.067,276.0
2021-02-15T01:04:03,42.805,6.029,-0.059,0.003,0.005,111.0,104.0,104.0,13.4,1505.2,322.6,-0.8,1.9,2470.435,13.28,0.059,272.9
2021-02-15T01:07:03,42.805,6.029,-0.074,0.01,0.0,107.0,106.0,103.0,13.4,1505.2,323.4,-0.7,1.8,2470.448,13.28,0.074,277.7
2021-02-15T01:10:03,42.805,6.029,-0.072,0.0,-0.021,107.0,104.0,105.0,13.4,1505.2,325.9,-0.7,1.8,2470.432,13.28,0.071,270.0
2021-02-15T01:13:03,42.805,6.029,-0.058,-0.015,0.025,107.0,106.0,103.0,13.3,1505.2,325.5,-0.7,1.8,2470.414,13.28,0.059,255.5
2021-02-15T01:16:03,42.805,6.029,-0.053,0.006,-0.002,107.0,106.0,103.0,13.4,1505.2,327.5,-0.7,1.8,2470.382,13.28,0.053,276.5
2021-02-15T01:19:03,42.805,6.029,-0.052,0.015,-0.006,106.0,105.0,104.0,13.3,1505.2,327.6,-0.7,1.8,2470.372,13.28,0.054,286.1
2021-02-15T01:22:03,42.805,6.029,-0.042,0.0,-0.011,107.0,103.0,104.0,13.3,1505.2,326.0,-0.7,1.8,2470.385,13.28,0.042,270.0
2021-02-15T01:25:03,42.805,6.029,-0.045,0.003,-0.018,106.0,106.0,103.0,13.4,1505.2,325.0,-0.7,1.8,2470.374,13.28,0.045,273.8
2021-02-15T01:28:03,42.805,6.029,-0.06,0.001,-0.015,106.0,106.0,103.0,13.4,1505.2,327.1,-0.8,1.8,2470.378,13.28,0.06,271.0
2021-02-15T01:31:03,42.805,6.029,-0.066,0.035,-0.024,107.0,105.0,102.0,13.4,1505.2,326.6,-0.8,1.8,2470.372,13.28,0.074,297.9
2021-02-15T01:34:03,42.805,6.029,-0.074,0.014,-0.026,107.0,106.0,104.0,13.4,1505.2,328.3,-0.7,1.8,2470.365,13.28,0.075,280.7
2021-02-15T01:37:03,42.805,6.029,-0.074,0.024,0.016,106.0,105.0,104.0,13.3,1505.2,326.2,-0.8,1.8,2470.35,13.28,0.077,288.0
2021-02-15T01:40:03,42.805,6.029,-0.065,-0.01,-0.012,107.0,106.0,103.0,13.3,1505.2,324.7,-0.7,1.9,2470.362,13.28,0.065,261.3
2021-02-15T01:43:03,42.805,6.029,-0.061,-0.002,-0.02,106.0,106.0,103.0,13.3,1505.2,323.1,-0.8,1.9,2470.406,13.28,0.061,268.1
2021-02-15T01:46:03,42.805,6.029,-0.055,0.019,0.002,106.0,105.0,104.0,13.3,1505.2,323.5,-0.7,1.8,2470.335,13.28,0.058,289.1
2021-02-15T01:49:03,42.805,6.029,-0.045,0.013,0.025,107.0,106.0,104.0,13.3,1505.2,326.1,-0.8,1.8,2470.372,13.28,0.046,286.1
2021-02-15T01:52:03,42.805,6.029,-0.05,0.005,0.003,106.0,105.0,103.0,13.3,1505.2,325.2,-0.7,1.9,2470.382,13.28,0.05,275.7
2021-02-15T01:55:03,42.805,6.029,-0.064,0.021,-0.023,106.0,105.0,103.0,13.4,1505.2,327.0,-0.7,1.8,2470.358,13.28,0.067,288.2
2021-02-15T01:58:03,42.805,6.029,-0.033,0.0,0.01,106.0,105.0,103.0,13.4,1505.2,326.8,-0.7,1.9,2470.315,13.28,0.033,270.0
2021-02-15T02:04:03,42.805,6.029,-0.047,0.007,-0.012,107.0,105.0,105.0,13.3,1505.2,322.8,-0.7,1.8,2470.348,13.28,0.047,278.5
2021-02-15T02:07:03,42.805,6.029,-0.047,0.008,0.01,107.0,106.0,103.0,13.4,1505.2,325.9,-0.8,1.8,2470.398,13.28,0.047,279.7
2021-02-15T02:10:03,42.805,6.029,-0.073,0.004,0.011,106.0,106.0,104.0,13.4,1505.2,328.3,-0.7,1.8,2470.398,13.28,0.073,273.1
2021-02-15T02:13:03,42.805,6.029,-0.07,0.013,0.022,105.0,105.0,104.0,13.4,1505.2,327.7,-0.8,1.8,2470.397,13.28,0.071,280.5
2021-02-15T02:16:03,42.805,6.029,-0.066,0.005,-0.023,106.0,106.0,103.0,13.4,1505.2,323.3,-0.8,1.8,2470.325,13.28,0.066,274.3
2021-02-15T02:19:03,42.805,6.029,-0.073,0.01,-0.035,105.0,106.0,104.0,13.4,1505.2,324.1,-0.7,1.8,2470.379,13.28,0.073,277.8
2021-02-15T02:22:03,42.805,6.029,-0.057,0.021,-0.007,106.0,104.0,103.0,13.4,1505.2,324.7,-0.8,1.8,2470.378,13.28,0.06,290.2
2021-02-15T02:25:03,42.805,6.029,-0.05,-0.003,0.025,106.0,105.0,104.0,13.4,1505.2,326.5,-0.8,1.8,2470.353,13.28,0.05,266.6
2021-02-15T02:28:03,42.805,6.029,-0.047,0.031,0.017,106.0,105.0,102.0,13.4,1505.2,326.6,-0.7,1.8,2470.34,13.28,0.056,303.4
2021-02-15T02:31:03,42.805,6.029,-0.055,0.0,-0.017,106.0,106.0,103.0,13.4,1505.2,323.3,-0.7,1.8,2470.331,13.28,0.055,270.0
2021-02-15T02:34:03,42.805,6.029,-0.051,0.005,-0.019,109.0,105.0,102.0,13.4,1505.2,323.0,-0.7,1.8,2470.353,13.28,0.051,275.6
2021-02-15T02:37:03,42.805,6.029,-0.047,0.0,0.0,106.0,105.0,105.0,13.4,1505.2,324.7,-0.8,1.8,2470.348,13.28,0.047,270.0
2021-02-15T02:40:03,42.805,6.029,-0.049,-0.013,-0.017,105.0,105.0,104.0,13.4,1505.2,324.0,-0.7,1.8,2470.357,13.28,0.05,255.1
2021-02-15T02:43:03,42.805,6.029,-0.064,0.013,-0.006,105.0,105.0,103.0,13.3,1505.2,326.8,-0.8,1.8,2470.377,13.28,0.065,281.5
2021-02-15T02:46:03,42.805,6.029,-0.053,-0.002,0.017,106.0,104.0,103.0,13.4,1505.2,326.4,-0.7,1.8,2470.329,13.28,0.053,267.8
2021-02-15T02:49:03,42.805,6.029,-0.036,-0.01,0.006,106.0,106.0,103.0,13.3,1505.2,326.5,-0.8,1.8,2470.367,13.28,0.037,254.5
2021-02-15T02:52:03,42.805,6.029,-0.053,0.015,0.002,106.0,104.0,103.0,13.4,1505.2,326.3,-0.8,1.8,2470.344,13.28,0.055,285.8
2021-02-15T02:55:03,42.805,6.029,-0.056,0.006,-0.006,106.0,106.0,103.0,13.4,1505.2,326.4,-0.8,1.9,2470.321,13.28,0.056,276.1
2021-02-15T02:58:03,42.805,6.029,-0.082,0.003,-0.012,104.0,104.0,103.0,13.4,1505.2,326.0,-0.8,1.8,2470.337,13.28,0.082,272.1
2021-02-15T03:04:03,42.805,6.029,-0.058,0.005,0.001,104.0,103.0,103.0,13.3,1505.2,326.7,-0.7,1.8,2470.376,13.28,0.058,274.9
2021-02-15T03:07:03,42.805,6.029,-0.052,-0.011,-0.003,105.0,103.0,104.0,13.4,1505.2,322.6,-0.7,1.9,2470.377,13.28,0.053,258.1
2021-02-15T03:10:03,42.805,6.029,-0.044,-0.011,-0.011,106.0,103.0,100.0,13.3,1505.2,324.9,-0.8,1.8,2470.342,13.28,0.045,256.0
2021-02-15T03:13:03,42.805,6.029,-0.038,0.003,-0.016,105.0,105.0,102.0,13.4,1505.2,326.6,-0.7,1.9,2470.381,13.28,0.038,274.5
2021-02-15T03:16:03,42.805,6.029,-0.053,-0.009,0.002,105.0,104.0,104.0,13.3,1505.2,324.1,-0.7,1.9,2470.339,13.28,0.053,260.4
2021-02-15T03:19:03,42.805,6.029,-0.043,0.002,-0.007,105.0,104.0,104.0,13.4,1505.2,324.6,-0.7,1.8,2470.359,13.28,0.043,272.7
2021-02-15T03:22:03,42.805,6.029,-0.079,0.034,-0.006,104.0,105.0,103.0,13.4,1505.2,325.2,-0.7,1.8,2470.35,13.28,0.086,293.3
2021-02-15T03:25:03,42.805,6.029,-0.067,0.012,-0.022,104.0,105.0,102.0,13.4,1505.2,323.8,-0.7,1.8,2470.323,13.28,0.068,280.2
2021-02-15T03:28:03,42.805,6.029,-0.077,0.002,-0.014,105.0,104.0,103.0,13.4,1505.2,325.7,-0.7,1.8,2470.329,13.28,0.077,271.5
2021-02-15T03:31:03,42.805,6.029,-0.067,0.017,-0.016,104.0,104.0,103.0,13.4,1505.2,323.7,-0.8,1.8,2470.365,13.28,0.069,284.2
2021-02-15T03:34:03,42.805,6.029,-0.066,-0.001,0.004,104.0,104.0,103.0,13.3,1505.2,325.3,-0.8,1.8,2470.368,13.28,0.066,269.1
2021-02-15T03:37:03,42.805,6.029,-0.053,0.007,-0.018,104.0,105.0,103.0,13.4,1505.2,324.7,-0.7,1.8,2470.364,13.28,0.053,277.5
2021-02-15T03:40:03,42.805,6.029,-0.042,0.011,-0.027,105.0,105.0,102.0,13.4,1505.2,325.8,-0.8,1.8,2470.374,13.28,0.043,284.7
2021-02-15T03:43:03,42.805,6.029,-0.05,-0.005,-0.001,106.0,103.0,103.0,13.4,1505.2,326.3,-0.8,1.9,2470.329,13.28,0.05,264.3
2021-02-15T03:46:03,42.805,6.029,-0.031,0.013,0.007,105.0,104.0,103.0,13.3,1505.2,326.8,-0.8,1.8,2470.345,13.28,0.033,292.7
2021-02-15T03:49:03,42.805,6.029,-0.034,0.017,-0.034,105.0,103.0,103.0,13.4,1505.2,326.8,-0.7,1.8,2470.327,13.28,0.038,296.6
2021-02-15T03:52:03,42.805,6.029,-0.051,-0.015,0.007,103.0,105.0,103.0,13.4,1505.2,325.2,-0.7,1.9,2470.365,13.28,0.053,253.6
2021-02-15T03:55:03,42.805,6.029,-0.058,0.003,0.03,104.0,104.0,102.0,13.4,1505.2,324.9,-0.7,1.8,2470.342,13.28,0.058,273.0
2021-02-15T03:58:03,42.805,6.029,-0.066,0.016,-0.001,105.0,104.0,102.0,13.4,1505.2,324.3,-0.7,1.8,2470.349,13.28,0.067,283.6
2021-02-15T04:04:03,42.805,6.029,-0.061,0.033,0.046,105.0,103.0,103.0,13.4,1505.2,325.5,-0.7,1.8,2470.35,13.28,0.069,298.4
2021-02-15T04:07:03,42.805,6.029,-0.034,0.02,-0.002,104.0,104.0,103.0,13.4,1505.2,325.4,-0.8,1.8,2470.372,13.28,0.039,300.5
2021-02-15T04:10:03,42.805,6.029,-0.065,0.002,0.0,105.0,104.0,102.0,13.4,1505.2,325.5,-0.7,1.8,2470.333,13.28,0.065,271.8
2021-02-15T04:13:03,42.805,6.029,-0.036,0.007,0.017,104.0,104.0,103.0,13.3,1505.2,326.0,-0.7,1.8,2470.373,13.28,0.036,281.0
2021-02-15T04:16:03,42.805,6.029,-0.068,0.003,-0.005,105.0,104.0,102.0,13.4,1505.2,326.1,-0.7,1.8,2470.344,13.28,0.068,272.5
2021-02-15T04:19:03,42.805,6.029,-0.064,0.023,-0.006,104.0,104.0,102.0,13.4,1505.2,327.3,-0.8,1.8,2470.326,13.28,0.068,289.8
2021-02-15T04:22:03,42.805,6.029,-0.055,-0.006,-0.009,106.0,104.0,103.0,13.4,1505.2,327.8,-0.7,1.8,2470.347,13.28,0.055,263.8
2021-02-15T04:25:03,42.805,6.029,-0.065,0.021,-0.002,104.0,103.0,103.0,13.4,1505.2,327.4,-0.7,1.8,2470.323,13.28,0.068,287.9
2021-02-15T04:28:03,42.805,6.029,-0.048,-0.008,-0.008,105.0,104.0,103.0,13.4,1505.2,327.4,-0.7,1.8,2470.337,13.28,0.048,260.5
2021-02-15T04:31:03,42.805,6.029,-0.061,0.01,-0.004,105.0,105.0,103.0,13.4,1505.2,327.1,-0.8,1.8,2470.331,13.28,0.061,279.3
2021-02-15T04:34:03,42.805,6.029,-0.045,-0.004,-0.022,105.0,105.0,103.0,13.4,1505.2,325.4,-0.8,1.8,2470.335,13.28,0.045,264.9
2021-02-15T04:37:03,42.805,6.029,-0.076,0.014,-0.016,105.0,104.0,103.0,13.4,1505.2,327.4,-0.7,1.8,2470.327,13.28,0.077,280.4
2021-02-15T04:40:03,42.805,6.029,-0.046,0.01,-0.001,105.0,104.0,102.0,13.3,1505.2,326.8,-0.7,1.8,2470.31,13.28,0.047,282.3
2021-02-15T04:43:03,42.805,6.029,-0.058,0.02,-0.01,104.0,106.0,103.0,13.4,1505.2,327.7,-0.7,1.8,2470.328,13.28,0.061,289.0
2021-02-15T04:46:03,42.805,6.029,-0.054,-0.001,-0.018,104.0,104.0,104.0,13.3,1505.2,324.9,-0.8,1.8,2470.321,13.28,0.054,268.9
2021-02-15T04:49:03,42.805,6.029,-0.029,-0.01,-0.021,104.0,104.0,105.0,13.3,1505.2,325.1,-0.8,1.8,2470.316,13.28,0.03,251.0
2021-02-15T04:52:03,42.805,6.029,-0.047,-0.002,-0.003,105.0,105.0,103.0,13.3,1505.2,323.8,-0.8,1.9,2470.372,13.28,0.047,267.6
2021-02-15T04:55:03,42.805,6.029,-0.043,-0.005,-0.004,106.0,105.0,103.0,13.3,1505.2,323.9,-0.8,1.8,2470.366,13.28,0.043,263.4
2021-02-15T04:58:03,42.805,6.029,-0.047,0.0,0.018,106.0,104.0,103.0,13.3,1505.2,327.4,-0.7,1.8,2470.369,13.28,0.047,270.0
2021-02-15T05:04:03,42.805,6.029,-0.068,0.0,-0.016,105.0,104.0,103.0,13.4,1505.2,326.7,-0.7,1.8,2470.377,13.28,0.067,270.0
2021-02-15T05:07:03,42.805,6.029,-0.048,-0.009,0.001,104.0,105.0,102.0,13.4,1505.2,326.2,-0.7,1.8,2470.4,13.28,0.048,259.4
2021-02-15T05:10:03,42.805,6.029,-0.064,0.011,-0.002,104.0,103.0,103.0,13.3,1505.2,326.4,-0.8,1.8,2470.363,13.28,0.064,279.8
2021-02-15T05:13:03,42.805,6.029,-0.058,-0.01,-0.001,104.0,104.0,102.0,13.4,1505.2,325.3,-0.8,1.8,2470.363,13.28,0.058,260.2
2021-02-15T05:16:03,42.805,6.029,-0.05,0.023,0.01,104.0,104.0,103.0,13.4,1505.2,326.9,-0.7,1.9,2470.344,13.28,0.055,294.7
2021-02-15T05:19:03,42.805,6.029,-0.048,0.004,0.006,104.0,105.0,102.0,13.4,1505.2,326.0,-0.7,1.8,2470.413,13.28,0.048,274.8
2021-02-15T05:22:03,42.805,6.029,-0.068,-0.005,-0.029,105.0,104.0,104.0,13.3,1505.2,325.9,-0.8,1.8,2470.394,13.28,0.068,265.8
2021-02-15T05:25:03,42.805,6.029,-0.054,-0.017,-0.008,106.0,104.0,103.0,13.4,1505.2,325.6,-0.8,1.8,2470.353,13.28,0.056,252.5
2021-02-15T05:28:03,42.805,6.029,-0.087,0.008,-0.026,104.0,105.0,103.0,13.4,1505.2,326.9,-0.8,1.8,2470.38,13.28,0.087,275.3
2021-02-15T05:31:03,42.805,6.029,-0.067,0.02,-0.003,105.0,104.0,102.0,13.4,1505.2,326.4,-0.8,1.8,2470.34,13.28,0.069,286.6
2021-02-15T05:34:03,42.805,6.029,-0.041,-0.006,0.005,104.0,104.0,103.0,13.4,1505.2,326.6,-0.7,1.9,2470.367,13.28,0.041,261.7
2021-02-15T05:37:03,42.805,6.029,-0.033,0.008,-0.006,105.0,105.0,103.0,13.4,1505.2,326.5,-0.8,1.8,2470.353,13.28,0.033,283.6
2021-02-15T05:40:03,42.805,6.029,-0.045,0.009,-0.008,104.0,103.0,103.0,13.3,1505.2,325.3,-0.7,1.9,2470.383,13.28,0.045,281.3
2021-02-15T05:43:03,42.805,6.029,-0.065,-0.002,-0.018,104.0,104.0,102.0,13.3,1505.2,324.1,-0.8,1.8,2470.382,13.28,0.065,268.2
2021-02-15T05:46:03,42.805,6.029,-0.074,0.003,-0.014,104.0,103.0,102.0,13.4,1505.2,325.7,-0.8,1.8,2470.343,13.28,0.074,272.3
2021-02-15T05:49:03,42.805,6.029,-0.079,0.034,0.01,103.0,103.0,102.0,13.4,1505.2,326.4,-0.8,1.8,2470.401,13.28,0.086,293.3
2021-02-15T05:52:03,42.805,6.029,-0.074,-0.018,-0.015,104.0,103.0,102.0,13.3,1505.2,326.1,-0.8,1.8,2470.382,13.28,0.076,256.3
2021-02-15T05:55:03,42.805,6.029,-0.077,0.0,-0.01,103.0,103.0,101.0,13.3,1505.2,326.9,-0.7,1.8,2470.362,13.28,0.076,270.0
2021-02-15T05:58:03,42.805,6.029,-0.064,0.01,-0.011,104.0,103.0,101.0,13.4,1505.2,326.7,-0.8,1.8,2470.39,13.28,0.064,278.9
2021-02-15T06:04:03,42.805,6.029,-0.05,-0.018,-0.014,104.0,104.0,103.0,13.4,1505.2,324.0,-0.8,1.8,2470.433,13.28,0.053,250.2
2021-02-15T06:07:03,42.805,6.029,-0.069,0.004,0.003,105.0,102.0,102.0,13.4,1505.2,326.5,-0.7,1.8,2470.431,13.28,0.069,273.3
2021-02-15T06:10:03,42.805,6.029,-0.076,0.004,-0.023,104.0,103.0,102.0,13.4,1505.2,327.7,-0.8,1.8,2470.441,13.28,0.076,273.0
2021-02-15T06:13:03,42.805,6.029,-0.063,-0.008,-0.013,104.0,103.0,102.0,13.4,1505.2,325.9,-0.7,1.8,2470.408,13.28,0.063,262.8
2021-02-15T06:16:03,42.805,6.029,-0.048,-0.001,-0.014,104.0,103.0,102.0,13.4,1505.2,324.7,-0.8,1.8,2470.48,13.28,0.048,268.8
2021-02-15T06:19:03,42.805,6.029,-0.057,0.005,-0.016,104.0,103.0,102.0,13.4,1505.2,326.9,-0.7,1.8,2470.431,13.28,0.057,275.0
2021-02-15T06:22:03,42.805,6.029,-0.036,-0.006,0.007,104.0,103.0,103.0,13.3,1505.2,324.2,-0.8,1.8,2470.393,13.28,0.036,260.5
2021-02-15T06:25:03,42.805,6.029,-0.038,-0.016,0.014,105.0,103.0,102.0,13.4,1505.2,324.2,-0.7,1.8,2470.46,13.28,0.041,247.2
2021-02-15T06:28:03,42.805,6.029,-0.052,-0.004,0.017,104.0,103.0,102.0,13.3,1505.2,326.9,-0.7,1.8,2470.447,13.28,0.052,265.6
2021-02-15T06:31:03,42.805,6.029,-0.04,-0.002,-0.023,102.0,103.0,102.0,13.4,1505.2,323.0,-0.7,1.8,2470.426,13.28,0.04,267.1
2021-02-15T06:34:03,42.805,6.029,-0.06,0.023,0.0,104.0,103.0,103.0,13.4,1505.2,324.2,-0.8,1.8,2470.457,13.28,0.064,291.0
2021-02-15T06:37:03,42.805,6.029,-0.048,0.02,0.004,104.0,102.0,102.0,13.3,1505.2,324.4,-0.7,1.8,2470.415,13.28,0.052,292.6
2021-02-15T06:40:03,42.805,6.029,-0.071,0.025,0.014,102.0,103.0,102.0,13.4,1505.2,323.8,-0.7,1.8,2470.41,13.28,0.075,289.4
2021-02-15T06:43:03,42.805,6.029,-0.052,0.006,0.0,104.0,103.0,102.0,13.4,1505.2,323.4,-0.8,1.9,2470.475,13.28,0.052,276.6
2021-02-15T06:46:03,42.805,6.029,-0.036,-0.01,0.012,104.0,103.0,102.0,13.3,1505.2,325.7,-0.8,1.8,2470.448,13.28,0.037,254.5
2021-02-15T06:49:03,42.805,6.029,-0.069,0.004,-0.02,103.0,103.0,102.0,13.4,1505.2,328.0,-0.8,1.8,2470.433,13.28,0.069,273.3
2021-02-15T06:52:03,42.805,6.029,-0.061,0.017,-0.021,103.0,103.0,101.0,13.4,1505.2,327.2,-0.7,1.8,2470.414,13.28,0.063,285.6
2021-02-15T06:55:03,42.805,6.029,-0.051,0.006,-0.008,104.0,102.0,102.0,13.4,1505.2,327.6,-0.7,1.8,2470.474,13.28,0.051,276.7
2021-02-15T06:58:03,42.805,6.029,-0.053,-0.014,-0.037,105.0,102.0,102.0,13.3,1505.2,327.1,-0.7,1.9,2470.45,13.28,0.054,255.2
2021-02-15T07:04:03,42.805,6.029,-0.049,0.012,0.018,103.0,104.0,103.0,13.4,1505.2,323.4,-0.7,1.8,2470.469,13.28,0.05,283.8
2021-02-15T07:07:03,42.805,6.029,-0.064,0.01,0.012,104.0,102.0,102.0,13.4,1505.2,322.7,-0.8,1.8,2470.5,13.28,0.064,278.9
2021-02-15T07:10:03,42.805,6.029,-0.053,-0.011,-0.032,104.0,101.0,102.0,13.4,1505.2,323.2,-0.7,1.8,2470.522,13.28,0.054,258.3
2021-02-15T07:13:03,42.805,6.029,-0.046,0.002,0.012,105.0,103.0,101.0,13.4,1505.2,325.1,-0.7,1.8,2470.505,13.28,0.046,272.5
2021-02-15T07:16:03,42.805,6.029,-0.073,0.005,-0.015,104.0,101.0,102.0,13.4,1505.2,326.7,-0.8,1.8,2470.471,13.28,0.073,273.9
2021-02-15T07:19:03,42.805,6.029,-0.072,0.009,0.007,103.0,103.0,102.0,13.4,1505.2,326.9,-0.8,1.8,2470.475,13.28,0.072,277.1
2021-02-15T07:22:03,42.805,6.029,-0.058,0.006,-0.007,103.0,104.0,102.0,13.4,1505.2,324.8,-0.8,1.8,2470.525,13.28,0.058,275.9
2021-02-15T07:25:03,42.805,6.029,-0.084,0.011,0.035,104.0,103.0,103.0,13.3,1505.2,323.9,-0.8,1.8,2470.514,13.28,0.084,277.5
2021-02-15T07:28:03,42.805,6.029,-0.069,-0.008,0.02,104.0,103.0,103.0,13.3,1505.2,327.8,-0.7,1.8,2470.49,13.28,0.069,263.4
2021-02-15T07:31:03,42.805,6.029,-0.05,0.005,0.018,103.0,103.0,102.0,13.4,1505.2,325.3,-0.8,1.9,2470.513,13.28,0.05,275.7
2021-02-15T07:34:03,42.805,6.029,-0.075,0.011,0.005,104.0,103.0,102.0,13.4,1505.2,324.7,-0.8,1.8,2470.476,13.28,0.075,278.3
2021-02-15T07:37:03,42.805,6.029,-0.065,0.001,0.012,103.0,104.0,102.0,13.3,1505.2,325.4,-0.7,1.8,2470.526,13.28,0.065,270.9
2021-02-15T07:40:03,42.805,6.029,-0.023,0.019,0.019,103.0,103.0,101.0,13.4,1505.2,326.4,-0.8,1.8,2470.52,13.28,0.029,309.6
2021-02-15T07:43:03,42.805,6.029,-0.075,0.007,-0.009,105.0,103.0,100.0,13.3,1505.2,328.1,-0.8,1.8,2470.504,13.28,0.075,275.3
2021-02-15T07:46:03,42.805,6.029,-0.069,0.004,-0.034,104.0,103.0,101.0,13.4,1505.2,323.9,-0.7,1.9,2470.51,13.28,0.069,273.3
2021-02-15T07:49:03,42.805,6.029,-0.053,0.009,0.001,104.0,103.0,102.0,13.3,1505.2,326.2,-0.8,1.8,2470.513,13.28,0.053,279.6
2021-02-15T07:52:03,42.805,6.029,-0.051,0.0,-0.001,104.0,103.0,102.0,13.3,1505.2,325.5,-0.8,1.8,2470.508,13.28,0.051,270.0
2021-02-15T07:55:03,42.805,6.029,-0.05,0.01,-0.008,104.0,104.0,102.0,13.4,1505.2,326.3,-0.7,1.8,2470.538,13.28,0.05,281.3
2021-02-15T07:58:03,42.805,6.029,-0.064,0.021,0.022,104.0,103.0,103.0,13.3,1505.2,325.5,-0.8,1.8,2470.506,13.28,0.067,288.2
2021-02-15T08:01:03,42.805,6.029,-0.059,0.008,0.026,103.0,103.0,101.0,13.3,1505.2,325.9,-0.8,1.8,2470.486,13.28,0.059,277.7
2021-02-15T08:04:03,42.805,6.029,-0.063,-0.008,-0.004,104.0,103.0,103.0,13.4,1505.2,326.2,-0.7,1.8,2470.531,13.28,0.063,262.8
2021-02-15T08:07:03,42.805,6.029,-0.057,0.034,-0.015,105.0,103.0,102.0,13.3,1505.2,324.9,-0.7,1.8,2470.516,13.28,0.066,300.8
2021-02-15T08:10:03,42.805,6.029,-0.076,0.013,-0.018,104.0,105.0,103.0,13.4,1505.2,325.6,-0.7,1.9,2470.541,13.28,0.077,279.7
2021-02-15T08:13:03,42.805,6.029,-0.078,-0.013,-0.037,103.0,103.0,102.0,13.4,1505.2,324.6,-0.7,1.8,2470.539,13.28,0.079,260.5
2021-02-15T08:16:03,42.805,6.029,-0.059,0.0,-0.033,103.0,104.0,101.0,13.4,1505.2,324.2,-0.8,1.8,2470.545,13.28,0.058,270.0
2021-02-15T08:19:03,42.805,6.029,-0.052,0.007,0.002,105.0,103.0,102.0,13.4,1505.2,327.0,-0.8,1.8,2470.542,13.28,0.052,277.7
2021-02-15T08:22:03,42.805,6.029,-0.087,0.008,0.014,104.0,103.0,102.0,13.4,1505.2,327.0,-0.8,1.8,2470.571,13.28,0.087,275.3
2021-02-15T08:25:03,42.805,6.029,-0.061,-0.013,-0.024,104.0,103.0,102.0,13.3,1505.2,325.1,-0.8,1.8,2470.571,13.28,0.062,258.0
2021-02-15T08:28:03,42.805,6.029,-0.05,-0.005,0.0,105.0,104.0,102.0,13.4,1505.2,324.7,-0.8,1.9,2470.52,13.28,0.05,264.3
2021-02-15T08:31:03,42.805,6.029,-0.048,-0.007,0.026,104.0,104.0,103.0,13.3,1505.2,324.3,-0.7,1.8,2470.571,13.28,0.048,261.7
2021-02-15T08:34:03,42.805,6.029,-0.051,0.014,0.001,104.0,103.0,102.0,13.4,1505.2,326.7,-0.8,1.8,2470.558,13.28,0.052,285.3
2021-02-15T08:37:03,42.805,6.029,-0.058,-0.005,0.0,106.0,103.0,102.0,13.3,1505.2,325.1,-0.8,1.8,2470.567,13.28,0.058,265.1
2021-02-15T08:40:03,42.805,6.029,-0.045,0.012,0.017,103.0,104.0,102.0,13.3,1505.2,323.6,-0.7,1.8,2470.552,13.28,0.046,284.9
2021-02-15T08:43:03,42.805,6.029,-0.056,-0.001,0.003,104.0,102.0,103.0,13.3,1505.2,322.8,-0.7,1.9,2470.554,13.28,0.056,269.0
2021-02-15T08:46:03,42.805,6.029,-0.077,0.007,0.021,104.0,104.0,101.0,13.4,1505.2,328.1,-0.8,1.9,2470.597,13.28,0.077,275.2
2021-02-15T08:49:03,42.805,6.029,-0.04,-0.01,0.03,104.0,102.0,102.0,13.3,1505.2,324.7,-0.8,1.9,2470.573,13.28,0.041,256.0
2021-02-15T08:52:03,42.805,6.029,-0.044,0.016,-0.005,103.0,103.0,104.0,13.4,1505.2,326.4,-0.8,1.8,2470.56,13.28,0.046,290.0
2021-02-15T08:55:03,42.805,6.029,-0.047,0.003,-0.01,105.0,104.0,101.0,13.3,1505.2,323.0,-0.7,1.9,2470.574,13.28,0.047,273.6
2021-02-15T08:58:03,42.805,6.029,-0.034,0.016,0.009,104.0,103.0,102.0,13.4,1505.2,326.2,-0.7,1.8,2470.57,13.28,0.037,295.2
2021-02-15T09:04:03,42.805,6.029,-0.066,-0.003,-0.011,104.0,104.0,102.0,13.3,1505.2,324.9,-0.8,1.8,2470.588,13.28,0.066,267.4
2021-02-15T09:07:03,42.805,6.029,-0.055,0.003,0.013,103.0,103.0,102.0,13.4,1505.2,324.8,-0.7,1.8,2470.577,13.28,0.055,273.1
2021-02-15T09:10:03,42.805,6.029,-0.074,-0.016,-0.002,104.0,103.0,102.0,13.3,1505.2,326.7,-0.8,1.8,2470.623,13.28,0.075,257.8
2021-02-15T09:13:03,42.805,6.029,-0.052,-0.007,-0.037,103.0,103.0,102.0,13.4,1505.2,326.8,-0.7,1.8,2470.615,13.28,0.052,262.3
2021-02-15T09:16:03,42.805,6.029,-0.04,-0.007,-0.007,104.0,103.0,102.0,13.3,1505.2,327.8,-0.7,1.8,2470.603,13.28,0.04,260.1
2021-02-15T09:19:03,42.805,6.029,-0.037,0.003,-0.001,103.0,103.0,102.0,13.4,1505.2,325.0,-0.8,1.8,2470.581,13.28,0.037,274.6
2021-02-15T09:22:03,42.805,6.029,-0.061,-0.003,-0.017,103.0,104.0,101.0,13.3,1505.2,326.3,-0.8,1.8,2470.598,13.28,0.061,267.2
2021-02-15T09:25:03,42.805,6.029,-0.053,-0.004,0.016,103.0,103.0,102.0,13.3,1505.2,326.5,-0.7,1.8,2470.608,13.28,0.053,265.7
2021-02-15T09:28:03,42.805,6.029,-0.062,-0.005,-0.005,104.0,102.0,103.0,13.4,1505.2,323.4,-0.8,1.8,2470.607,13.28,0.062,265.4
2021-02-15T09:31:03,42.805,6.029,-0.012,0.014,0.014,105.0,102.0,102.0,13.4,1505.2,324.2,-0.7,1.9,2470.62,13.28,0.018,319.4
2021-02-15T09:34:03,42.805,6.029,-0.05,0.002,0.002,103.0,102.0,103.0,13.4,1505.2,323.6,-0.8,1.8,2470.579,13.28,0.05,272.3
2021-02-15T09:37:03,42.805,6.029,-0.047,-0.003,0.01,104.0,102.0,102.0,13.3,1505.2,325.0,-0.8,1.8,2470.597,13.28,0.047,266.4
2021-02-15T09:40:03,42.805,6.029,-0.083,0.008,0.002,104.0,104.0,102.0,13.3,1505.2,324.8,-0.8,1.8,2470.588,13.28,0.083,275.5
2021-02-15T09:43:03,42.805,6.029,-0.05,0.012,0.0,104.0,103.0,101.0,13.3,1505.2,325.7,-0.8,1.8,2470.6,13.28,0.051,283.5
2021-02-15T09:46:03,42.805,6.029,-0.059,0.007,0.007,104.0,103.0,101.0,13.4,1505.2,326.3,-0.7,1.8,2470.6,13.28,0.059,276.8
2021-02-15T09:49:03,42.805,6.029,-0.065,-0.005,0.011,102.0,102.0,102.0,13.3,1505.2,326.9,-0.7,1.8,2470.609,13.28,0.065,265.6
2021-02-15T09:52:03,42.805,6.029,-0.077,-0.004,-0.039,104.0,102.0,102.0,13.4,1505.2,325.3,-0.8,1.8,2470.578,13.28,0.077,267.0